Date,TemperatureHighF,TemperatureAvgF,TemperatureLowF,DewpointHighF,DewpointAvgF,DewpointLowF,HumidityHigh,HumidityAvg,HumidityLow,PressureMaxIn,PressureMinIn,WindSpeedMaxMPH,WindSpeedAvgMPH,GustSpeedMaxMPH,PrecipitationSumIn
2013-1-19,41.7,40.6,39.7,30.3,28.9,21.5,65,63,54,29.56,29.55,34,16,34,0.00
2013-1-20,39.2,19.9,16.2,22.9,5.5,0.1,63,53,43,30.07,29.56,29,7,32,0.00
2013-1-21,19.0,13.1,7.7,5.7,-0.0,-7.6,67,55,44,30.00,29.86,24,8,24,0.00
2013-1-22,12.9,8.5,5.7,2.6,-3.1,-7.5,65,58,51,30.14,29.99,19,6,19,0.00
2013-1-23,21.0,16.0,12.0,14.2,5.3,-0.8,76,62,48,30.10,29.87,22,8,22,0.00
2013-1-24,19.4,14.3,7.9,7.8,-0.6,-7.8,74,53,31,30.41,30.00,8,2,8,0.00
2013-1-25,27.0,19.9,14.7,17.8,8.9,-2.7,74,62,45,30.22,29.79,21,6,21,0.00
2013-1-26,28.2,25.0,21.9,15.7,13.4,9.9,68,61,52,30.23,29.87,13,3,13,0.00
2013-1-27,33.1,26.4,21.7,28.3,17.5,12.2,83,69,58,30.22,29.80,17,6,17,0.07
2013-1-28,46.6,38.9,32.9,44.9,36.4,28.3,96,91,83,29.81,29.64,24,6,24,0.24
2013-1-29,57.6,51.9,34.9,54.5,48.7,32.3,96,89,82,29.75,29.24,24,8,24,0.57
2013-1-30,47.8,36.2,23.5,46.5,24.9,-20.5,95,74,11,29.32,28.96,26,4,26,0.65
2013-1-31,24.3,17.8,12.7,15.8,8.3,3.8,75,66,56,29.83,29.32,34,10,34,0.00
2013-2-1,17.8,12.2,9.0,6.1,1.9,-2.4,70,62,55,30.13,29.82,24,9,24,0.00
2013-2-2,22.3,16.8,12.4,15.7,8.7,3.6,77,70,61,30.01,29.79,22,4,22,0.00
2013-2-3,22.8,18.9,13.1,12.1,8.9,3.6,73,64,56,29.85,29.72,18,6,18,0.00
2013-2-4,27.3,21.3,17.1,16.6,13.2,8.9,75,71,63,29.85,29.66,14,2,17,0.01
2013-2-5,31.5,22.5,13.3,22.0,14.8,6.4,79,72,64,29.83,29.61,21,4,21,0.00
2013-2-6,37.4,29.5,23.0,20.6,16.7,12.6,68,59,44,30.06,29.83,12,3,12,0.13
2013-2-7,38.3,30.3,27.1,31.2,22.6,18.2,86,73,65,29.99,29.65,11,2,11,0.35
2013-2-8,34.0,29.2,26.2,26.1,21.6,16.8,87,73,64,30.16,29.66,11,4,11,0.15
2013-2-9,36.9,27.0,15.6,21.4,16.6,8.4,73,65,53,30.20,29.95,14,4,14,0.00
2013-2-10,44.4,35.5,27.7,38.7,27.2,16.2,85,72,61,29.94,29.37,17,7,17,0.11
2013-2-11,48.0,34.7,29.7,40.6,25.0,19.4,82,67,61,30.35,29.36,41,16,41,0.00
2013-2-12,29.7,27.9,26.6,20.4,17.9,15.5,70,66,62,29.91,29.76,23,6,23,0.00
2013-2-13,43.7,31.5,20.5,28.9,22.4,14.0,80,69,55,29.76,29.53,15,4,15,0.00
2013-2-14,39.4,34.8,31.3,30.9,26.3,22.2,80,71,62,29.75,29.48,28,8,28,0.00
2013-2-15,33.1,26.7,23.9,24.3,14.5,7.0,78,60,43,29.98,29.74,14,3,14,0.02
2013-2-16,26.1,19.5,15.6,13.7,6.7,-1.5,73,57,43,29.94,29.88,14,5,14,0.00
2013-2-17,30.4,20.3,13.6,14.7,7.3,3.7,71,57,41,30.70,29.92,14,2,14,0.01
2013-2-18,51.3,37.6,21.9,40.3,24.8,7.9,83,60,48,29.93,29.24,28,9,28,0.18
2013-2-19,43.0,20.5,15.6,37.7,12.3,5.7,84,70,62,29.88,29.24,34,13,34,0.13
2013-2-20,24.6,19.4,16.0,14.4,10.2,5.5,75,67,62,30.14,29.88,19,6,19,0.00
2013-2-21,26.2,23.6,20.3,14.9,13.3,11.5,70,64,58,30.18,29.87,19,4,19,0.00
2013-2-22,31.6,25.3,18.9,25.8,18.3,11.5,84,74,63,29.89,29.65,25,8,25,0.00
2013-2-23,29.5,27.1,26.1,21.9,17.1,13.9,75,66,59,29.76,29.69,27,11,27,0.00
2013-2-24,36.9,28.2,21.0,23.9,19.5,15.3,79,70,61,29.96,29.73,18,3,18,0.02
2013-2-25,43.5,30.1,17.6,23.9,18.0,11.0,80,62,40,30.00,29.84,8,2,8,0.01
2013-2-26,35.4,30.6,28.2,25.6,22.0,17.8,86,71,52,29.85,29.31,16,4,16,0.14
2013-2-27,30.2,28.9,27.9,26.4,24.3,22.4,86,82,76,29.43,29.28,8,1,8,0.26
2013-2-28,36.7,31.9,29.3,28.9,25.2,-13.2,86,76,67,29.82,29.44,11,4,11,0.25
2013-3-1,34.3,29.1,24.4,23.1,19.0,13.2,75,66,56,29.97,29.81,10,2,10,0.00
2013-3-2,29.3,26.2,21.4,18.3,14.3,8.7,67,60,52,29.96,29.90,11,3,11,0.00
2013-3-3,33.8,26.1,21.9,18.8,12.1,6.6,64,55,37,29.91,29.87,9,2,9,0.00
2013-3-4,37.0,27.8,16.5,14.4,11.5,7.4,69,51,31,29.95,29.84,8,2,8,0.00
2013-3-5,31.6,27.8,23.5,22.0,17.8,14.3,81,66,50,29.88,29.61,17,4,17,0.00
2013-3-6,37.8,30.2,23.9,26.3,23.0,17.3,83,74,62,30.08,29.72,7,2,7,0.22
2013-3-7,41.7,29.6,22.6,27.1,23.2,-10.8,84,77,65,30.24,30.07,5,1,5,0.15
2013-3-8,41.9,29.4,18.1,24.3,17.7,11.6,79,63,44,30.32,30.18,6,1,11,0.00
2013-3-9,42.8,35.8,28.4,31.0,24.3,16.9,68,63,53,30.18,29.74,10,6,14,0.00
2013-3-10,56.3,47.8,37.9,42.9,37.5,30.2,87,68,55,29.74,29.48,14,6,27,0.33
2013-3-11,52.5,40.5,32.0,45.2,36.5,27.3,90,85,63,29.56,29.34,17,8,24,0.24
2013-3-12,37.4,31.3,26.1,25.6,23.6,19.1,85,73,55,29.75,29.63,21,10,27,0.04
2013-3-13,31.8,27.6,24.6,21.4,15.5,10.8,81,60,46,30.10,29.75,9,6,19,0.01
2013-3-14,38.7,32.2,28.0,26.1,18.1,11.9,79,56,41,30.10,29.91,10,5,17,0.01
2013-3-15,39.0,32.7,27.9,32.3,27.2,21.9,85,80,70,29.92,29.62,10,5,17,0.05
2013-3-16,32.7,30.2,28.2,29.0,23.8,16.7,86,77,62,29.92,29.49,6,3,9,0.00
2013-3-17,38.3,31.1,27.5,21.3,16.1,12.7,69,54,41,30.04,29.88,8,4,14,0.00
2013-3-18,32.4,28.8,26.6,27.6,21.5,13.3,87,74,55,29.88,29.40,21,7,36,0.07
2013-3-19,33.3,25.7,19.9,16.4,12.6,9.6,67,57,45,29.84,29.54,21,14,33,0.00
2013-3-20,28.8,21.2,17.2,15.1,7.8,2.4,72,56,49,29.86,29.80,14,7,27,0.00
2013-3-21,29.7,24.4,18.0,17.2,12.5,6.9,77,60,51,29.84,29.73,8,4,14,0.00
2013-3-22,36.3,29.1,24.1,19.4,14.9,11.4,70,55,43,29.90,29.82,8,3,14,0.00
2013-3-23,37.4,28.8,22.6,23.2,18.8,15.9,77,66,53,29.95,29.83,5,2,8,0.00
2013-3-24,39.0,31.4,25.7,22.2,18.7,16.1,70,60,46,29.84,29.46,8,3,11,0.00
2013-3-25,36.3,32.4,29.7,26.2,22.8,17.4,74,67,58,29.83,29.45,8,5,13,0.00
2013-3-26,37.9,33.4,28.9,27.9,26.6,24.6,87,76,64,30.04,29.83,6,3,8,0.01
2013-3-27,43.2,35.2,30.7,31.1,27.7,24.2,86,74,57,30.11,30.02,7,2,10,0.00
2013-3-28,44.1,35.6,30.4,31.3,26.9,21.3,82,71,45,30.16,30.09,8,2,11,0.00
2013-3-29,46.2,34.6,23.4,29.3,21.4,12.0,83,61,28,30.14,30.06,9,2,12,0.00
2013-3-30,58.1,41.8,23.9,32.7,23.9,16.5,79,53,26,30.07,29.70,10,3,15,0.00
2013-3-31,52.2,43.5,34.7,39.4,34.5,27.5,95,72,53,29.70,29.51,12,6,19,0.00
2013-4-1,36.5,32.1,26.2,28.9,15.2,7.3,77,50,33,29.95,29.64,9,4,13,0.00
2013-4-2,40.8,32.4,25.5,21.2,14.4,10.0,65,47,34,30.11,29.94,7,4,14,0.00
2013-4-3,42.6,31.3,23.2,22.0,15.2,9.6,73,52,34,30.27,30.10,6,2,8,0.00
2013-4-4,53.8,40.3,26.1,22.2,14.9,11.5,64,39,22,30.14,29.77,11,5,14,0.00
2013-4-5,47.8,37.3,31.6,32.7,25.4,20.0,79,62,36,30.04,29.77,9,4,13,0.00
2013-4-6,66.6,49.4,32.9,42.4,27.7,20.4,71,45,28,29.97,29.46,15,8,22,0.00
2013-4-7,63.9,45.3,39.7,46.7,36.9,30.8,95,73,41,29.81,29.42,26,6,34,0.02
2013-4-8,63.0,44.1,36.3,55.8,38.3,31.1,97,80,66,29.81,29.47,21,6,29,0.22
2013-4-9,71.2,47.8,37.8,58.0,43.7,37.0,98,87,61,29.84,29.64,7,3,13,0.04
2013-4-10,47.7,41.5,36.7,45.3,39.4,34.3,97,92,86,29.82,29.62,10,4,26,0.39
2013-4-11,41.9,39.1,36.5,40.1,37.5,34.1,97,94,90,29.75,29.41,12,7,21,1.22
2013-4-12,44.2,38.0,33.6,36.4,33.8,30.8,93,85,73,29.64,29.38,18,10,24,0.06
2013-4-13,43.5,38.1,34.9,32.1,29.1,24.8,81,70,60,29.79,29.63,16,8,24,0.00
2013-4-14,62.6,46.3,32.0,44.5,34.2,24.7,78,63,46,29.84,29.57,10,5,16,0.00
2013-4-15,66.4,56.2,41.5,55.6,47.3,40.2,96,73,56,29.78,29.57,12,7,20,0.44
2013-4-16,47.5,41.4,37.4,41.5,34.7,27.2,98,78,52,30.07,29.76,5,2,8,0.09
2013-4-17,53.1,46.2,40.5,43.7,37.6,31.7,94,73,56,30.09,29.67,9,5,15,0.50
2013-4-18,63.9,53.7,43.5,59.6,51.6,42.2,97,93,84,29.68,29.24,17,7,33,1.59
2013-4-19,43.5,37.8,31.6,42.2,31.1,26.9,95,77,68,29.65,29.31,24,17,35,0.04
2013-4-20,41.4,34.6,30.6,27.7,18.1,7.6,76,51,29,30.25,29.65,13,4,22,0.01
2013-4-21,54.5,40.5,27.3,28.4,18.8,10.7,67,44,23,30.35,30.18,10,4,14,0.00
2013-4-22,67.3,51.9,36.1,34.8,28.7,22.3,70,45,22,30.18,29.91,8,4,12,0.00
2013-4-23,65.8,48.1,34.3,49.2,40.1,33.8,99,76,48,29.91,29.69,10,5,18,0.46
2013-4-24,45.9,38.5,33.3,35.8,30.2,11.6,99,74,29,29.93,29.69,12,5,17,0.09
2013-4-25,49.3,43.5,39.2,40.2,34.5,29.5,90,71,56,30.14,29.86,17,8,25,0.02
2013-4-26,68.5,50.5,35.8,43.0,34.4,27.5,73,56,36,30.18,30.08,13,4,20,0.00
2013-4-27,71.6,56.8,43.2,46.4,41.4,29.8,86,59,23,30.14,29.86,9,2,14,0.00
2013-4-28,60.3,52.7,43.9,53.3,47.7,43.4,99,84,54,29.86,29.66,5,1,8,0.02
2013-4-29,73.0,56.9,40.8,53.8,49.0,40.6,99,77,50,29.75,29.65,12,5,17,0.00
2013-4-30,85.3,69.8,55.2,60.8,56.4,51.4,94,64,40,29.81,29.66,11,7,17,0.11
2013-5-1,83.7,72.8,61.3,59.9,56.0,50.5,81,58,36,30.00,29.81,9,3,11,0.00
2013-5-2,68.9,50.9,40.5,57.2,45.8,39.8,98,83,65,30.03,29.94,6,2,10,0.00
2013-5-3,61.7,48.9,39.7,56.2,45.8,39.5,99,90,75,29.96,29.78,8,2,11,0.00
2013-5-4,76.3,65.2,58.8,52.8,45.1,37.8,73,49,28,29.87,29.78,6,2,11,0.00
2013-5-5,79.0,61.7,52.2,48.5,44.3,40.0,82,55,27,29.86,29.80,5,2,10,0.00
2013-5-6,70.3,58.8,51.4,49.7,43.0,33.7,74,56,34,29.85,29.80,4,1,8,0.00
2013-5-7,69.6,56.4,45.5,52.5,46.4,40.6,99,71,39,29.87,29.81,4,1,8,0.00
2013-5-8,72.9,60.5,49.6,54.0,46.0,30.3,97,62,22,29.88,29.81,4,1,7,0.00
2013-5-9,83.7,63.2,47.8,59.5,51.2,43.2,99,70,27,29.82,29.71,8,1,14,0.05
2013-5-10,59.2,48.1,40.5,58.9,47.8,40.0,99,99,97,29.77,29.57,13,3,20,0.21
2013-5-11,57.4,44.0,39.0,50.6,41.1,36.3,99,90,70,29.80,29.63,10,3,19,0.00
2013-5-12,50.2,42.2,36.1,38.5,32.2,26.9,87,68,49,29.95,29.79,7,3,14,0.00
2013-5-13,60.8,46.8,32.9,34.8,28.8,17.6,89,54,21,30.03,29.88,4,1,8,0.00
2013-5-14,79.7,64.0,50.2,56.9,42.9,25.0,64,46,37,29.89,29.50,10,4,17,0.00
2013-5-15,77.0,67.1,57.4,55.5,50.0,44.8,75,55,38,29.68,29.45,18,4,25,0.00
2013-5-16,73.4,58.1,50.2,52.2,47.7,41.0,99,71,36,29.81,29.66,6,0,6,0.00
2013-5-17,74.7,66.4,58.3,57.7,48.8,42.8,65,53,42,29.89,29.80,5,1,10,0.00
2013-5-18,81.7,67.0,57.6,59.6,51.7,42.3,89,59,45,29.91,29.81,4,1,7,0.00
2013-5-19,91.2,73.6,59.5,64.5,59.5,53.0,91,64,36,29.83,29.63,9,1,9,0.00
2013-5-20,89.6,79.1,69.3,70.1,64.8,56.8,93,64,35,29.69,29.58,12,4,21,0.00
2013-5-21,81.0,70.7,60.8,66.7,63.2,58.4,98,78,58,29.67,29.53,13,4,22,0.51
2013-5-22,75.0,64.4,57.4,67.6,62.1,57.1,99,92,75,29.57,29.48,8,2,15,0.31
2013-5-23,58.3,44.3,41.4,58.0,43.1,39.8,99,96,86,30.04,29.56,8,4,19,0.09
2013-5-24,54.3,45.4,37.2,43.4,39.2,33.8,99,81,53,30.24,30.04,6,2,12,0.01
2013-5-25,61.0,48.3,36.9,50.2,43.2,36.1,99,84,64,30.23,30.11,4,1,8,0.00
2013-5-26,74.5,57.7,41.2,46.9,42.2,38.5,99,62,30,30.14,30.00,5,1,11,0.00
2013-5-27,61.2,56.5,51.8,54.8,50.1,38.0,98,81,43,30.01,29.72,5,2,18,0.19
2013-5-28,79.7,66.7,54.9,73.2,63.3,54.0,99,90,68,29.73,29.60,12,4,21,1.18
2013-5-29,85.3,69.7,56.7,69.3,63.4,56.2,99,82,57,29.82,29.63,9,2,16,0.05
2013-5-30,88.5,76.9,68.9,71.2,67.0,61.9,98,73,50,29.81,29.71,10,3,17,0.19
2013-5-31,78.4,71.1,61.7,69.2,65.6,59.6,99,83,65,29.78,29.61,10,3,15,0.26
2013-6-1,77.9,68.8,58.5,67.4,63.2,58.2,99,83,62,29.65,29.52,12,4,16,0.39
2013-6-2,60.8,52.7,46.4,60.4,49.3,40.8,99,89,70,29.85,29.53,11,4,17,0.01
2013-6-3,64.6,51.9,40.6,49.0,43.5,39.1,99,75,50,29.94,29.84,6,1,9,0.00
2013-6-4,74.7,58.5,45.0,55.1,48.0,42.4,99,71,36,30.00,29.91,4,1,8,0.00
2013-6-5,81.1,65.6,57.0,53.7,48.3,43.2,84,55,32,29.94,29.77,4,1,10,0.00
2013-6-6,67.8,59.8,51.6,58.6,51.1,46.4,99,74,52,29.79,29.70,3,1,9,0.00
2013-6-7,67.1,57.2,49.3,55.0,50.3,43.4,98,79,58,29.76,29.71,5,1,11,0.00
2013-6-8,72.0,58.4,44.8,53.3,46.5,39.7,99,69,36,29.85,29.73,7,1,13,0.00
2013-6-9,84.6,70.7,57.7,65.0,58.1,50.1,86,66,41,29.85,29.68,6,1,8,0.00
2013-6-10,72.5,64.2,57.0,67.5,62.1,56.6,99,93,65,29.69,29.59,8,1,10,0.17
2013-6-11,82.9,66.9,55.6,65.1,60.3,55.3,99,82,48,29.77,29.67,8,2,11,0.00
2013-6-12,86.2,72.8,61.2,75.0,67.7,60.6,99,85,58,29.74,29.40,12,1,18,0.14
2013-6-13,66.0,60.7,55.6,62.3,57.0,52.7,99,88,69,29.84,29.43,6,2,14,0.12
2013-6-14,69.8,58.8,50.4,60.0,53.2,47.5,99,83,57,29.95,29.83,4,1,8,0.00
2013-6-15,75.4,65.0,54.3,68.4,60.8,52.1,99,87,67,29.91,29.72,7,1,12,0.05
2013-6-16,83.5,70.9,62.6,67.8,63.4,57.4,97,79,45,29.76,29.67,9,4,16,0.06
2013-6-17,88.3,72.7,60.6,67.4,59.8,50.1,99,69,30,29.80,29.69,10,2,19,0.11
2013-6-18,75.4,63.3,56.3,62.3,58.5,51.2,99,86,58,29.89,29.73,5,1,14,0.00
2013-6-19,74.1,64.3,51.8,54.1,48.1,40.5,84,58,33,29.99,29.89,4,1,7,0.00
2013-6-20,86.5,66.9,53.8,62.2,54.8,49.5,94,69,35,30.02,29.94,4,0,5,0.00
2013-6-21,88.2,73.3,66.4,69.0,65.0,61.5,99,78,45,29.99,29.81,10,2,17,0.51
2013-6-22,88.2,74.7,66.9,74.3,68.9,64.5,99,83,59,29.95,29.81,6,2,11,0.00
2013-6-23,92.3,76.9,66.4,71.3,67.3,64.4,96,74,46,29.89,29.80,9,3,14,0.00
2013-6-24,87.6,74.3,65.8,70.8,67.0,61.3,99,79,49,29.91,29.72,10,3,24,0.07
2013-6-25,86.4,72.9,64.8,74.8,68.8,64.3,99,87,68,29.82,29.66,12,2,17,0.67
2013-6-26,86.7,72.3,65.5,72.7,68.2,65.0,99,88,55,29.73,29.57,7,2,11,0.41
2013-6-27,84.4,69.5,62.6,71.6,66.2,61.8,99,90,62,29.63,29.51,7,2,14,0.22
2013-6-28,79.7,68.7,61.7,66.9,63.8,59.7,99,86,55,29.55,29.43,7,2,10,0.01
2013-6-29,74.3,66.5,61.9,67.2,63.8,61.3,99,91,77,29.57,29.40,5,1,9,0.06
2013-6-30,76.8,66.2,60.1,66.9,62.4,58.6,99,88,66,29.80,29.57,5,1,11,0.00
2013-7-1,79.0,65.6,56.1,61.9,53.5,43.4,98,66,43,29.89,29.79,4,1,11,0.00
2013-7-2,65.3,59.8,57.6,58.9,55.8,47.5,99,88,58,29.91,29.85,3,1,8,0.59
2013-7-3,77.9,64.8,57.2,69.3,62.2,56.9,99,92,65,29.91,29.82,7,1,10,0.00
2013-7-4,81.7,73.3,59.4,68.6,62.7,57.1,99,71,53,29.96,29.89,7,2,10,0.00
2013-7-5,84.0,71.1,60.4,67.1,63.9,59.7,99,80,53,29.96,29.87,6,1,9,0.00
2013-7-6,80.6,71.7,66.6,72.4,68.7,66.3,99,91,69,29.92,29.83,6,0,9,0.13
2013-7-7,86.5,75.3,67.3,72.4,69.5,66.8,99,83,59,29.87,29.81,8,2,12,0.00
2013-7-8,81.9,76.1,71.6,74.4,71.1,67.7,94,85,68,29.89,29.79,8,4,16,0.05
2013-7-9,86.7,76.0,67.5,76.1,72.1,67.0,99,88,69,29.83,29.71,11,3,20,0.00
2013-7-10,80.2,74.4,63.0,76.1,68.3,59.0,97,82,61,29.83,29.67,9,3,16,0.00
2013-7-11,79.3,68.6,59.2,64.3,60.3,55.3,99,77,50,29.94,29.83,4,1,9,0.00
2013-7-12,79.9,68.0,56.3,66.4,61.4,56.0,99,81,59,29.98,29.90,4,1,9,0.00
2013-7-13,89.6,73.4,59.5,70.0,62.7,57.2,98,72,41,30.01,29.95,4,1,7,0.00
2013-7-14,91.8,77.8,66.9,71.9,67.8,64.1,95,73,45,30.06,30.00,3,1,8,0.00
2013-7-15,90.3,78.9,72.5,76.4,73.5,70.7,97,84,60,30.12,30.06,3,0,5,0.00
2013-7-16,92.3,82.3,73.4,75.7,72.8,68.0,99,75,51,30.17,30.09,8,2,12,0.00
2013-7-17,93.0,82.8,76.6,75.6,72.8,68.4,90,73,51,30.16,30.02,6,3,11,0.00
2013-7-18,96.1,84.9,77.9,77.3,74.3,68.9,94,72,47,30.03,29.81,8,3,12,0.00
2013-7-19,93.2,84.4,79.3,76.5,74.6,70.8,87,73,52,29.82,29.61,12,7,21,0.00
2013-7-20,87.6,79.0,71.4,74.8,68.9,60.9,99,73,45,29.78,29.61,11,2,17,0.00
2013-7-21,88.5,75.2,64.2,71.7,64.9,59.0,94,72,45,29.82,29.71,6,1,9,0.00
2013-7-22,87.8,75.6,67.8,72.1,67.2,64.0,95,77,52,29.75,29.59,5,2,8,0.00
2013-7-23,77.5,71.3,61.9,71.5,63.6,53.1,87,77,61,29.78,29.53,10,4,17,0.00
2013-7-24,74.7,62.2,51.1,56.9,52.1,48.2,94,71,48,29.89,29.78,4,1,10,0.00
2013-7-25,77.5,63.9,52.7,61.1,54.1,43.3,99,73,35,29.95,29.87,6,1,8,0.00
2013-7-26,78.8,67.3,60.1,63.8,58.2,48.6,93,73,53,29.90,29.72,9,2,20,0.00
2013-7-27,71.4,63.6,59.9,66.8,58.2,48.3,99,83,65,29.73,29.67,6,3,12,0.00
2013-7-28,70.3,61.3,53.6,55.5,52.4,49.8,97,73,57,29.83,29.66,14,6,21,0.11
2013-7-29,73.2,64.2,54.5,59.5,56.2,52.8,98,76,55,30.03,29.82,8,2,13,0.00
2013-7-30,80.6,65.3,52.3,64.3,57.4,51.6,99,78,49,30.03,29.93,3,0,5,0.00
2013-7-31,72.1,66.5,63.5,69.4,64.9,59.9,99,95,78,29.93,29.78,6,1,8,0.09
2013-8-1,78.6,68.5,61.0,68.6,62.3,52.8,99,82,45,29.82,29.76,6,1,8,0.01
2013-8-2,80.8,66.9,57.2,69.1,62.7,54.9,99,87,66,29.80,29.68,9,2,15,0.61
2013-8-3,79.2,68.8,61.2,68.5,62.8,54.9,99,83,55,29.93,29.75,4,1,11,0.00
2013-8-4,75.4,65.2,58.1,61.5,57.1,53.3,99,77,53,30.04,29.92,4,1,11,0.00
2013-8-5,75.4,59.6,53.2,63.9,55.6,51.9,98,88,58,29.97,29.75,7,0,7,0.00
2013-8-6,84.4,71.6,62.1,72.4,67.1,60.9,99,86,63,29.76,29.69,7,2,12,0.61
2013-8-7,87.6,72.7,64.6,74.2,68.4,62.8,99,88,54,29.77,29.63,6,1,12,0.00
2013-8-8,81.7,68.4,60.6,65.4,61.3,55.4,99,80,45,29.85,29.76,4,1,11,0.00
2013-8-9,80.1,69.0,57.6,66.1,60.8,53.2,99,77,47,29.85,29.79,7,1,10,0.00
2013-8-10,82.6,71.3,63.7,66.8,60.6,48.1,98,72,36,29.97,29.84,4,1,8,0.00
2013-8-11,79.7,68.8,60.1,66.1,59.3,53.2,99,73,43,29.97,29.88,4,0,8,0.00
2013-8-12,82.9,71.4,64.6,70.3,65.8,60.5,99,84,55,29.89,29.70,6,1,13,0.38
2013-8-13,72.3,63.0,55.6,65.6,55.1,49.2,99,77,52,29.96,29.74,6,2,12,0.01
2013-8-14,70.9,59.4,50.5,52.8,49.6,45.5,97,72,45,30.04,29.95,4,1,8,0.00
2013-8-15,76.3,60.8,48.6,59.9,53.9,48.3,99,80,50,30.01,29.94,10,2,15,0.00
2013-8-16,81.0,66.1,55.4,64.1,58.4,49.2,99,79,35,30.03,29.95,6,1,8,0.00
2013-8-17,87.3,72.8,56.5,62.5,56.5,49.7,99,60,33,30.08,30.01,4,1,8,0.00
2013-8-18,81.5,67.6,56.5,64.8,59.5,56.1,99,77,48,30.05,29.95,4,1,8,0.00
2013-8-19,85.1,70.2,57.9,63.7,59.9,52.8,99,73,39,29.96,29.88,6,1,8,0.00
2013-8-20,87.3,73.9,63.0,67.4,64.3,61.7,99,75,48,29.98,29.90,8,2,12,0.00
2013-8-21,91.0,77.2,65.1,69.4,66.2,62.2,99,72,44,29.94,29.81,9,3,14,0.00
2013-8-22,77.9,69.5,65.1,72.3,68.4,64.7,99,96,74,29.96,29.84,11,2,17,1.52
2013-8-23,81.7,69.9,61.2,67.7,62.7,55.1,99,81,42,30.02,29.91,1,0,4,0.00
2013-8-24,86.0,69.3,56.7,64.1,59.2,53.3,99,74,36,30.11,30.01,0,0,2,0.00
2013-8-25,88.3,73.8,59.9,67.0,61.8,58.1,95,69,44,30.11,29.98,6,1,10,0.00
2013-8-26,86.9,78.2,71.6,72.7,67.6,62.2,79,70,60,30.01,29.84,15,7,20,0.00
2013-8-27,94.5,81.0,74.5,74.6,71.8,68.1,92,75,47,29.85,29.67,11,0,17,0.00
2013-8-28,81.0,74.3,68.7,74.6,71.6,68.5,99,91,76,29.87,29.66,3,1,9,0.00
2013-8-29,84.0,72.8,65.3,74.7,69.5,65.0,99,90,69,29.92,29.82,5,1,8,0.00
2013-8-30,94.3,77.8,66.7,75.6,70.1,66.5,99,80,48,29.83,29.55,9,3,16,0.00
2013-8-31,81.7,72.1,66.9,73.0,68.8,66.6,99,90,69,29.70,29.62,4,1,8,0.00
2013-9-1,81.0,73.3,68.0,73.1,69.5,65.8,99,88,69,29.66,29.57,8,2,12,0.08
2013-9-2,77.5,68.9,60.6,71.8,63.6,53.2,99,84,64,29.82,29.59,7,2,11,0.00
2013-9-3,72.5,61.4,56.1,59.8,55.6,52.7,99,82,53,29.91,29.80,8,0,8,0.00
2013-9-4,78.1,66.6,54.7,65.2,59.2,53.9,99,79,51,29.95,29.87,8,2,12,0.00
2013-9-5,76.1,65.4,57.0,62.5,55.3,47.5,98,73,41,30.08,29.94,4,1,8,0.00
2013-9-6,83.7,64.6,52.5,63.6,54.2,46.6,96,73,32,30.07,29.87,6,1,11,0.00
2013-9-7,84.2,70.8,63.5,70.9,64.8,59.0,99,82,51,29.88,29.74,10,2,16,0.07
2013-9-8,84.4,71.2,64.2,69.6,65.4,61.4,99,84,52,29.88,29.77,4,1,8,0.00
2013-9-9,93.7,77.3,64.0,75.1,66.8,57.8,94,72,49,29.83,29.68,11,2,17,0.01
2013-9-10,94.6,84.5,78.4,72.5,67.3,61.8,73,58,37,29.85,29.71,13,8,23,0.00
2013-9-11,84.6,77.6,69.4,72.4,68.8,64.2,93,75,51,29.90,29.81,12,4,18,0.00
2013-9-12,79.9,70.5,61.7,70.7,61.2,51.4,98,74,47,29.88,29.76,6,2,14,0.00
2013-9-13,66.4,58.3,50.9,52.3,47.3,41.1,94,68,45,29.98,29.88,6,2,16,0.00
2013-9-14,70.2,55.0,42.6,49.7,45.6,41.1,99,74,42,30.02,29.88,8,2,11,0.00
2013-9-15,59.2,54.8,51.3,58.9,50.7,42.0,99,87,67,29.97,29.85,1,0,3,0.22
2013-9-16,65.3,56.2,50.4,55.4,51.9,48.7,99,87,61,30.17,29.97,4,1,10,0.01
2013-9-17,72.5,56.5,44.2,54.6,49.5,43.7,99,80,43,30.18,29.98,4,1,8,0.00
2013-9-18,84.2,67.1,55.6,64.1,56.4,49.9,87,71,42,29.99,29.78,6,1,11,0.00
2013-9-19,73.6,68.0,65.3,72.1,67.1,63.7,99,97,85,29.86,29.65,6,1,9,0.69
2013-9-20,75.7,69.9,63.9,72.5,66.9,56.9,99,90,76,29.67,29.59,9,5,17,0.02
2013-9-21,68.9,61.2,57.9,59.0,54.0,49.0,99,78,55,29.74,29.57,6,3,14,0.06
2013-9-22,66.4,55.4,46.8,52.3,46.8,42.9,95,75,48,29.89,29.73,4,1,8,0.00
2013-9-23,73.4,55.7,44.1,53.7,46.8,43.1,99,76,39,29.96,29.88,3,1,8,0.00
2013-9-24,75.7,58.2,46.2,51.8,47.5,41.3,99,72,33,29.92,29.78,4,1,8,0.00
2013-9-25,74.7,58.3,47.1,57.9,52.5,46.7,99,83,46,29.81,29.76,4,1,8,0.00
2013-9-26,83.3,61.5,48.2,60.0,52.9,40.6,99,79,26,29.92,29.79,4,0,8,0.00
2013-9-27,85.8,65.1,50.9,55.8,50.4,42.6,87,64,26,30.01,29.92,4,1,7,0.00
2013-9-28,85.8,68.5,54.1,60.1,55.2,50.6,97,67,33,29.95,29.77,9,2,14,0.00
2013-9-29,72.9,62.1,52.3,63.1,56.0,51.5,99,82,58,29.87,29.75,10,2,14,0.37
2013-9-30,67.5,52.6,47.5,61.9,51.2,47.2,99,95,68,29.83,29.80,7,0,11,0.00
2013-10-1,78.8,68.9,56.7,66.3,63.0,54.6,99,82,61,29.81,29.73,9,4,16,0.00
2013-10-2,77.9,66.0,59.7,65.8,55.9,46.2,99,73,35,29.92,29.77,9,1,9,0.00
2013-10-3,78.3,67.2,60.1,72.6,64.2,50.9,99,90,68,29.85,29.71,6,1,14,0.12
2013-10-4,78.6,68.2,64.4,70.2,66.1,63.4,99,93,71,30.58,29.72,7,2,11,0.04
2013-10-5,82.8,70.3,64.8,74.3,68.4,64.5,99,94,72,29.80,29.62,6,1,11,0.19
2013-10-6,65.5,58.9,51.1,65.2,54.5,41.7,99,86,59,29.64,29.52,13,4,23,0.37
2013-10-7,65.1,54.1,48.6,53.2,46.5,40.6,97,76,52,29.92,29.55,12,6,22,0.02
2013-10-8,77.9,57.9,45.5,56.2,49.3,44.7,99,76,42,30.03,29.92,5,1,9,0.00
2013-10-9,55.8,53.0,50.0,50.0,48.3,46.2,87,84,81,30.04,30.00,1,0,2,0.00
2013-10-10,73.4,61.7,46.6,59.2,51.9,46.3,99,73,45,30.00,29.89,4,1,7,0.00
2013-10-11,81.0,60.5,48.0,53.5,49.4,42.3,99,72,30,29.93,29.83,4,1,8,0.00
2013-10-12,80.6,64.0,53.1,64.3,56.0,49.9,99,78,44,29.95,29.80,14,2,15,0.05
2013-10-13,64.9,57.9,48.2,53.9,45.7,41.6,87,65,46,30.20,29.95,4,2,10,0.00
2013-10-14,68.7,52.6,43.0,47.3,43.9,39.2,98,76,37,30.22,30.01,4,1,12,0.00
2013-10-15,64.6,56.1,48.0,61.3,53.1,44.0,98,90,78,30.02,29.62,9,3,14,0.15
2013-10-16,58.8,53.5,51.1,56.2,48.4,45.3,93,83,72,29.73,29.65,18,8,21,0.00
2013-10-17,53.6,50.6,48.6,51.4,48.9,41.2,99,94,68,29.73,29.61,13,5,27,0.80
2013-10-18,55.6,46.9,38.7,49.5,43.2,38.4,99,88,70,29.76,29.65,10,4,17,0.00
2013-10-19,55.9,48.6,41.0,45.2,39.0,32.7,99,71,45,29.74,29.59,16,6,24,0.22
2013-10-20,60.8,53.3,43.5,46.8,43.3,37.7,93,70,53,29.72,29.56,14,6,27,0.00
2013-10-21,58.5,48.9,41.7,51.9,40.9,27.2,99,74,55,29.75,29.60,16,8,27,0.15
2013-10-22,48.9,41.1,36.5,36.8,32.3,27.5,97,72,54,29.78,29.71,13,5,23,0.04
2013-10-23,45.1,38.1,33.6,39.7,33.5,26.1,99,85,55,29.79,29.65,9,3,20,0.40
2013-10-24,43.7,40.7,33.3,37.8,31.9,28.0,99,71,57,30.06,29.75,10,5,19,0.04
2013-10-25,50.4,43.3,35.8,39.5,31.8,24.7,99,65,45,30.18,29.88,17,6,24,0.12
2013-10-26,53.1,47.8,44.8,41.3,36.2,31.3,72,64,57,29.88,29.63,22,10,34,0.00
2013-10-27,55.4,47.5,40.6,38.0,33.9,30.5,81,60,45,29.88,29.79,11,4,17,0.00
2013-10-28,60.4,47.1,34.7,43.2,37.6,31.0,92,71,47,30.18,29.86,6,1,10,0.00
2013-10-29,58.5,44.5,34.7,43.4,37.0,31.3,89,76,53,30.19,29.99,4,2,8,0.00
2013-10-30,63.5,53.3,43.2,57.1,48.8,41.1,99,85,62,29.99,29.64,3,1,8,0.58
2013-10-31,62.4,59.4,51.4,61.7,59.0,51.0,99,99,97,29.65,29.00,15,6,21,2.07
2013-11-1,51.3,47.1,45.3,51.0,43.7,38.7,99,88,74,29.52,29.09,22,10,29,0.19
2013-11-2,50.5,45.2,40.5,45.2,43.1,38.1,99,93,74,29.89,29.51,7,3,14,0.40
2013-11-3,52.2,43.4,36.9,41.0,37.6,34.9,99,81,59,30.13,29.88,4,2,8,0.00
2013-11-4,55.4,46.1,38.7,42.9,38.0,34.9,91,74,52,30.14,29.97,7,3,15,0.00
2013-11-5,57.4,52.4,49.5,51.1,46.2,42.3,98,79,69,30.10,29.85,8,3,14,0.00
2013-11-6,58.5,50.2,42.6,54.6,47.4,34.1,99,90,69,29.88,29.59,14,7,23,0.73
2013-11-7,47.1,41.5,38.8,34.2,31.8,28.2,78,68,56,30.02,29.88,12,6,23,0.00
2013-11-8,47.7,41.3,36.0,37.5,30.0,23.6,99,65,47,30.12,29.88,9,3,14,0.08
2013-11-9,57.0,49.7,43.2,46.3,38.2,28.3,77,65,48,29.88,29.68,21,11,32,0.00
2013-11-10,48.9,42.8,37.2,35.8,31.7,27.5,75,65,54,30.12,29.83,17,5,36,0.00
2013-11-11,47.5,38.4,26.2,40.5,33.0,22.8,99,82,63,30.20,29.89,15,6,24,0.26
2013-11-12,36.7,28.5,24.6,28.3,22.8,17.6,97,80,58,30.43,30.20,6,2,14,0.05
2013-11-13,39.2,32.7,29.5,23.4,19.7,14.4,75,59,41,30.37,29.99,17,8,27,0.11
2013-11-14,46.8,36.8,28.9,27.7,21.7,16.4,61,54,40,30.00,29.77,18,8,27,0.00
2013-11-15,48.9,42.0,35.2,34.4,29.0,24.2,76,60,45,29.83,27.55,12,3,20,0.00
2013-11-16,57.4,48.6,40.3,56.2,44.7,31.6,97,86,69,29.81,29.46,12,6,18,0.08
2013-11-17,64.8,56.7,45.3,61.6,53.9,38.5,99,90,77,29.47,29.02,33,11,46,0.38
2013-11-18,45.3,39.1,35.1,39.3,30.6,23.4,82,72,59,30.01,29.47,15,8,28,0.00
2013-11-19,44.2,36.7,32.0,30.1,25.5,22.6,82,64,53,30.18,30.01,4,2,8,0.00
2013-11-20,45.9,36.6,30.2,36.2,26.1,22.0,96,67,43,30.16,29.93,9,4,17,0.08
2013-11-21,53.6,44.9,37.2,44.9,40.9,36.5,99,87,65,30.00,29.93,8,3,12,0.14
2013-11-22,45.7,38.8,33.3,44.9,34.5,24.4,99,85,67,30.24,29.97,7,4,10,0.05
2013-11-23,34.5,27.3,20.8,25.6,14.1,5.0,74,57,45,30.40,30.15,9,6,16,0.00
2013-11-24,27.9,22.6,20.3,13.4,5.2,-7.5,73,48,27,30.45,30.19,9,5,15,0.00
2013-11-25,33.6,27.2,18.5,29.1,13.8,-4.0,97,59,32,30.20,29.88,18,10,27,0.00
2013-11-26,36.7,31.4,26.6,28.9,23.1,12.4,92,72,45,29.90,29.77,11,5,22,0.00
2013-11-27,31.1,27.0,22.8,24.8,18.2,-27.3,92,70,56,30.03,29.83,8,4,12,0.00
2013-11-28,30.7,26.5,22.1,22.0,14.6,9.1,87,61,47,30.24,29.99,10,4,15,0.00
2013-11-29,39.6,30.5,27.3,21.8,17.8,15.0,68,59,43,30.42,30.24,7,1,11,0.04
2013-11-30,51.4,38.0,29.5,31.0,25.1,19.1,70,60,44,30.25,29.87,12,5,16,0.00
2013-12-1,44.2,38.9,31.3,37.2,31.5,24.3,92,75,55,29.90,29.80,10,2,14,0.00
2013-12-2,43.0,34.3,29.1,28.1,26.2,23.2,89,74,48,29.81,29.64,6,2,9,0.00
2013-12-3,47.7,42.5,32.7,47.4,41.7,29.1,99,97,82,29.63,29.52,10,4,10,0.13
2013-12-4,58.6,50.2,44.2,55.7,48.8,43.7,99,95,82,29.58,29.37,17,5,26,0.01
2013-12-5,53.4,33.5,27.5,50.1,25.6,15.9,91,73,59,30.02,29.39,16,9,25,0.00
2013-12-6,27.7,25.0,22.6,17.2,14.0,9.3,66,62,55,30.24,30.00,4,3,11,0.00
2013-12-7,23.4,19.8,16.3,10.9,7.9,4.5,69,59,53,30.44,30.25,5,2,11,0.00
2013-12-8,23.9,20.1,16.2,21.9,12.1,5.5,92,71,54,30.37,29.74,6,3,9,0.00
2013-12-9,28.9,23.4,14.7,25.0,14.8,3.4,92,70,53,29.98,29.70,20,11,33,0.00
2013-12-10,23.7,16.5,2.8,12.8,5.2,-9.6,77,60,43,30.05,29.78,28,10,34,0.00
2013-12-11,22.6,18.7,12.7,18.7,9.8,0.0,87,68,50,30.28,30.03,11,5,20,0.00
2013-12-12,25.9,17.0,2.1,16.3,5.8,-10.7,69,61,38,30.28,30.00,21,10,30,0.00
2013-12-13,33.4,23.9,15.4,19.4,13.9,6.5,77,65,56,30.00,29.93,12,3,17,0.01
2013-12-14,26.2,22.3,19.6,21.4,17.8,14.5,90,83,69,29.95,29.68,7,3,13,0.00
2013-12-15,28.8,21.7,17.2,23.8,12.4,3.6,82,67,53,29.86,29.66,14,7,22,0.00
2013-12-16,25.3,18.0,12.2,13.3,7.6,3.6,82,64,46,29.95,29.80,7,1,13,0.01
2013-12-17,33.1,26.8,18.1,26.7,20.7,12.4,94,78,60,29.83,29.71,18,7,27,0.00
2013-12-18,36.0,28.5,25.2,21.6,14.8,7.4,68,57,41,29.95,29.66,15,8,24,0.00
2013-12-19,40.3,37.7,35.6,35.7,32.4,21.5,97,82,56,29.75,29.63,16,5,21,0.05
2013-12-20,41.9,35.6,32.5,41.6,35.3,32.3,99,98,97,29.64,29.51,8,0,11,0.30
2013-12-21,35.1,33.2,31.1,34.4,32.8,30.9,99,99,98,29.64,29.40,6,0,9,0.34
2013-12-22,34.9,31.9,30.9,34.2,31.1,27.0,99,97,85,29.83,29.33,8,2,12,0.15
2013-12-23,30.9,22.9,10.4,27.1,16.2,4.3,88,75,62,30.18,29.83,16,8,28,0.01
2013-12-24,19.9,13.1,8.6,12.8,6.7,1.8,84,75,55,30.31,30.16,11,4,18,0.00
2013-12-25,27.7,21.6,14.5,25.2,15.0,6.3,94,76,59,30.22,29.87,13,4,19,0.00
2013-12-26,32.9,26.6,23.7,26.0,18.8,12.8,93,72,57,30.07,29.85,10,4,20,0.00
2013-12-27,44.4,36.0,29.8,30.7,28.6,26.0,95,75,53,30.08,29.87,18,4,28,0.07
2013-12-28,51.8,41.7,36.0,34.9,31.0,28.1,81,66,52,29.88,29.66,17,5,25,0.00
2013-12-29,41.9,32.2,20.8,31.8,24.4,9.9,91,73,55,29.90,29.55,10,2,18,0.00
2013-12-30,21.2,17.3,15.3,10.1,6.2,1.8,78,61,52,30.07,29.89,9,1,18,0.00
2013-12-31,17.2,15.0,13.8,12.5,7.6,4.7,83,72,64,30.12,29.92,10,3,19,0.00
2014-1-1,15.4,13.0,10.2,11.3,6.9,1.5,83,76,68,30.10,29.98,1,0,4,0.00
2014-1-2,16.5,11.5,3.2,6.2,-0.1,-9.9,75,60,42,30.15,29.88,5,0,8,0.00